Location: Six Mile Lake
(44.9000°N, 79.7170°W)
Time: 12:03:08
(UTC-04:00)

O/OREOS (USA 219) - Pass Details

Date: 08 July 2022
Orbit: 621 x 646 km, 72.0° (Epoch: 22 May)

Event Time Altitude Azimuth Distance (km) Brightness Sun altitude
Rises 00:51:59 0° 329° (NNW) 2,966 ? -22.2°
Reaches altitude 10° 00:54:21 10° 322° (NW) 2,053 ? -22.3°
Maximum altitude 00:58:41 41° 253° (WSW) 939 ? -22.4°
Enters shadow 00:59:01 40° 241° (WSW) 949 ? -22.4°
